sat.trackr.live / text

‹ back to catalog

STARLINK-2586

NORAD 48390 · 2021-038AP

PAYLOAD ACTIVE UNKNOWN

§ Identity

Operator
Country
US
Launch date
2021-05-04
Launch site
AFETR
Launch vehicle
Mass (kg)
RCS (m²)

Purposes: comms

External: N2YO · Heavens-Above · Gunter

§ Orbital elements

Epoch: 2026-09-19T10:11:39.199200Z

Period
94.01 min
Inclination
53.1600°
Eccentricity
0.0001113
Mean motion
15.31705135 rev/d
Perigee alt
470.0 km
Apogee alt
471.5 km
Semi-major
6,848.9 km
B*
-5.4077e-6
RAAN
151.0518°
Arg perigee
79.7142°
Mean anomaly
280.3984°
Rev number
29,834

§ Raw data

STARLINK-25861 48390U 21038AP  26262.42475925 -.00000533  00000+0 -54077-5 0  99942 48390  53.1600 151.0518 0001113  79.7142 280.3984 15.31705135298349

JSON: /api/v1/satellites/48390 · /tle

For live sub-satellite position, see the globe view (requires WebGL).

§ Visibility from observer

Set your observer location to see the next 7 days of passes ≥ 10°. The values pass through the URL so the page stays shareable.

No JS? Fill the form by hand. The geolocation button needs JavaScript.